SKL3 NZKK-NZAA

Flight info

Callsign SKL3
Flight time 0h 42m
Altitude 16000
Route OBKOP DCT UKAPA
Aircraft C25C/M-SDE2E3FGHRWXY/LB1

Departure

Time 2026-04-11 09:20
Airport Kerikeri Airport (NZKK)

Arrival

Time 2026-04-11 10:03
Airport Auckland International Airport (NZAA)
Time Latitude Longitude Altitude Speed Heading
2026-04-11 09:14 -35.26241 173.91215 486 ft 0 kts 175°
2026-04-11 09:18 -35.26267 173.91257 487 ft 11 kts 95°
2026-04-11 09:18 -35.26201 173.91350 490 ft 21 kts 342°
2026-04-11 09:18 -35.25993 173.91285 488 ft 35 kts 345°
2026-04-11 09:18 -35.25753 173.91209 490 ft 36 kts 346°
2026-04-11 09:19 -35.25496 173.91129 481 ft 40 kts 345°
2026-04-11 09:19 -35.25285 173.91070 480 ft 15 kts
2026-04-11 09:19 -35.25263 173.91061 481 ft 5 kts 182°
2026-04-11 09:19 -35.25376 173.91093 481 ft 42 kts 168°
2026-04-11 09:20 -35.25959 173.91279 591 ft 116 kts 164°
2026-04-11 09:20 -35.26550 173.91344 1913 ft 64 kts 167°
2026-04-11 09:20 -35.27183 173.91395 2324 ft 128 kts 159°
2026-04-11 09:20 -35.27969 173.91579 3929 ft 110 kts 147°
2026-04-11 09:21 -35.28638 173.92005 5258 ft 117 kts 143°
2026-04-11 09:21 -35.29461 173.92308 6497 ft 130 kts 148°
2026-04-11 09:21 -35.30367 173.92611 7768 ft 124 kts 150°
2026-04-11 09:21 -35.31183 173.92813 9080 ft 127 kts 149°
2026-04-11 09:22 -35.32118 173.93128 10019 ft 149 kts 152°
2026-04-11 09:22 -35.33139 173.93437 11177 ft 153 kts 152°
2026-04-11 09:22 -35.34180 173.93743 12327 ft 158 kts 153°
2026-04-11 09:22 -35.35271 173.94073 13501 ft 165 kts 154°
2026-04-11 09:23 -35.36390 173.94437 14559 ft 167 kts 152°
2026-04-11 09:23 -35.37567 173.94851 15395 ft 193 kts 155°
2026-04-11 09:23 -35.39016 173.95329 15644 ft 243 kts 158°
2026-04-11 09:23 -35.40805 173.95867 15648 ft 283 kts 160°
2026-04-11 09:24 -35.42838 173.96468 15654 ft 316 kts 160°
2026-04-11 09:24 -35.45074 173.97146 15654 ft 344 kts 160°
2026-04-11 09:24 -35.47449 173.97873 15653 ft 368 kts 161°
2026-04-11 09:24 -35.49999 173.98655 15654 ft 387 kts 161°
2026-04-11 09:25 -35.52564 173.99428 15648 ft 367 kts 161°
2026-04-11 09:25 -35.54982 174.00153 15644 ft 353 kts 160°
2026-04-11 09:25 -35.57432 174.00930 15646 ft 374 kts 160°
2026-04-11 09:25 -35.60022 174.01736 15644 ft 392 kts 161°
2026-04-11 09:26 -35.62716 174.02585 15655 ft 406 kts 160°
2026-04-11 09:26 -35.65502 174.03460 15656 ft 417 kts 161°
2026-04-11 09:26 -35.68244 174.04323 15657 ft 388 kts 161°
2026-04-11 09:26 -35.70730 174.05093 15653 ft 358 kts 160°
2026-04-11 09:27 -35.73063 174.05840 15648 ft 334 kts 159°
2026-04-11 09:27 -35.75253 174.06536 15642 ft 316 kts 159°
2026-04-11 09:27 -35.77341 174.07203 15644 ft 301 kts 159°
2026-04-11 09:27 -35.79334 174.07834 15646 ft 293 kts 158°
2026-04-11 09:28 -35.81358 174.08490 15650 ft 308 kts 159°
2026-04-11 09:28 -35.83454 174.09159 15659 ft 321 kts 159°
2026-04-11 09:28 -35.85658 174.09858 15663 ft 332 kts 160°
2026-04-11 09:28 -35.87933 174.10574 15663 ft 341 kts 160°
2026-04-11 09:29 -35.90255 174.11317 15677 ft 348 kts 160°
2026-04-11 09:29 -35.92619 174.12065 15683 ft 354 kts 160°
2026-04-11 09:29 -35.95025 174.12834 15685 ft 359 kts 160°
2026-04-11 09:29 -35.97457 174.13609 15688 ft 363 kts 160°
2026-04-11 09:30 -35.99886 174.14382 15690 ft 366 kts 161°
2026-04-11 09:30 -36.02361 174.15174 15691 ft 369 kts 161°
2026-04-11 09:30 -36.04854 174.15967 15691 ft 371 kts 161°
2026-04-11 09:30 -36.07365 174.16774 15689 ft 373 kts 161°
2026-04-11 09:31 -36.09886 174.17576 15693 ft 375 kts 161°
2026-04-11 09:31 -36.12416 174.18389 15703 ft 376 kts 161°
2026-04-11 09:31 -36.14963 174.19202 15701 ft 377 kts 161°
2026-04-11 09:31 -36.17508 174.20021 15698 ft 378 kts 161°
2026-04-11 09:32 -36.20064 174.20837 15707 ft 379 kts 161°
2026-04-11 09:32 -36.22596 174.21652 15705 ft 380 kts 161°
2026-04-11 09:32 -36.25155 174.22473 15709 ft 380 kts 161°
2026-04-11 09:32 -36.27724 174.23298 15717 ft 381 kts 161°
2026-04-11 09:33 -36.30279 174.24161 15713 ft 380 kts 158°
2026-04-11 09:33 -36.32808 174.25151 15712 ft 381 kts 160°
2026-04-11 09:33 -36.35363 174.26043 15717 ft 381 kts 160°
2026-04-11 09:33 -36.37909 174.26962 15717 ft 381 kts 159°
2026-04-11 09:34 -36.40450 174.27922 15721 ft 381 kts 159°
2026-04-11 09:34 -36.43001 174.28896 15492 ft 388 kts 159°
2026-04-11 09:34 -36.45630 174.29875 14997 ft 400 kts 159°
2026-04-11 09:34 -36.48334 174.30877 14463 ft 410 kts 159°
2026-04-11 09:35 -36.51061 174.31893 13927 ft 418 kts 159°
2026-04-11 09:35 -36.53867 174.32948 13349 ft 423 kts 159°
2026-04-11 09:35 -36.56699 174.34009 12774 ft 425 kts 158°
2026-04-11 09:35 -36.59399 174.35004 12239 ft 382 kts 158°
2026-04-11 09:36 -36.61821 174.35902 11756 ft 345 kts 156°
2026-04-11 09:36 -36.64021 174.36732 11320 ft 317 kts 155°
2026-04-11 09:36 -36.66057 174.37507 10919 ft 295 kts 154°
2026-04-11 09:36 -36.67968 174.38223 10543 ft 279 kts 154°
2026-04-11 09:37 -36.69780 174.38909 10184 ft 266 kts 153°
2026-04-11 09:37 -36.71511 174.39556 9907 ft 252 kts 153°
2026-04-11 09:37 -36.73131 174.40165 9724 ft 236 kts 152°
2026-04-11 09:37 -36.74675 174.40749 9449 ft 228 kts 151°
2026-04-11 09:38 -36.75671 174.41126 9262 ft 223 kts 151°
2026-04-11 09:38 -36.77152 174.41695 8977 ft 235 kts 151°
2026-04-11 09:38 -36.78869 174.42380 8630 ft 282 kts 153°
2026-04-11 09:38 -36.81585 174.43398 8095 ft 330 kts 155°
2026-04-11 09:39 -36.83108 174.43958 7794 ft 337 kts 156°
2026-04-11 09:39 -36.85240 174.44712 7364 ft 301 kts 155°
2026-04-11 09:39 -36.87127 174.45423 6985 ft 273 kts 153°
2026-04-11 09:39 -36.88881 174.46102 6635 ft 263 kts 153°
2026-04-11 09:40 -36.90641 174.46793 6284 ft 266 kts 153°
2026-04-11 09:40 -36.92423 174.47461 5920 ft 267 kts 154°
2026-04-11 09:40 -36.94123 174.48102 5575 ft 265 kts 153°
2026-04-11 09:40 -36.95944 174.48785 5218 ft 264 kts 153°
2026-04-11 09:41 -36.97698 174.49459 4864 ft 264 kts 154°
2026-04-11 09:41 -36.99101 174.49981 4581 ft 262 kts 154°
2026-04-11 09:41 -37.00829 174.50675 4218 ft 259 kts 150°
2026-04-11 09:41 -37.02520 174.51420 3896 ft 258 kts 152°
2026-04-11 09:42 -37.04203 174.52191 3535 ft 252 kts 143°
2026-04-11 09:42 -37.05488 174.53521 3215 ft 239 kts 126°
2026-04-11 09:42 -37.06321 174.55219 3049 ft 221 kts 105°
2026-04-11 09:43 -37.06402 174.58824 3005 ft 201 kts 84°
2026-04-11 09:43 -37.06142 174.60514 3002 ft 194 kts 77°
2026-04-11 09:43 -37.05785 174.61941 3006 ft 145 kts 75°
2026-04-11 09:43 -37.05497 174.62975 2809 ft 116 kts 77°
2026-04-11 09:44 -37.05250 174.63873 2428 ft 96 kts 77°
2026-04-11 09:44 -37.05058 174.64588 2021 ft 79 kts 79°
2026-04-11 09:44 -37.04881 174.65234 1920 ft 79 kts 81°
2026-04-11 09:44 -37.04704 174.65867 1834 ft 78 kts 81°
2026-04-11 09:45 -37.04525 174.66524 1725 ft 80 kts 80°
2026-04-11 09:45 -37.04348 174.67172 1646 ft 78 kts 81°
2026-04-11 09:45 -37.04162 174.67874 1535 ft 101 kts 81°
2026-04-11 09:45 -37.03933 174.68692 1400 ft 94 kts 81°
2026-04-11 09:46 -37.03720 174.69463 1272 ft 94 kts 79°
2026-04-11 09:46 -37.03508 174.70247 1143 ft 97 kts 79°
2026-04-11 09:46 -37.03285 174.71061 1013 ft 100 kts 80°
2026-04-11 09:46 -37.03051 174.71909 883 ft 105 kts 79°
2026-04-11 09:47 -37.02813 174.72770 749 ft 106 kts 82°
2026-04-11 09:47 -37.02593 174.73636 602 ft 104 kts 80°
2026-04-11 09:47 -37.02350 174.74465 472 ft 101 kts 77°
2026-04-11 09:47 -37.02106 174.75271 364 ft 96 kts 81°
2026-04-11 09:48 -37.01903 174.76084 249 ft 99 kts 81°
2026-04-11 09:48 -37.01663 174.76919 97 ft 102 kts 82°
2026-04-11 09:48 -37.01447 174.77707 27 ft 100 kts 77°
2026-04-11 09:48 -37.01168 174.78743 460 ft 152 kts 77°
2026-04-11 09:49 -37.00812 174.80076 1805 ft 150 kts 77°
2026-04-11 09:49 -37.00459 174.81352 3077 ft 184 kts 75°
2026-04-11 09:49 -36.99945 174.83247 3060 ft 266 kts 73°
2026-04-11 09:49 -36.99320 174.85433 3029 ft 255 kts 72°
2026-04-11 09:50 -36.98778 174.87409 3009 ft 226 kts 77°
2026-04-11 09:50 -36.98442 174.89206 3010 ft 202 kts 67°
2026-04-11 09:50 -36.97524 174.90457 3004 ft 186 kts 52°
2026-04-11 09:50 -36.96360 174.91116 2994 ft 197 kts 16°
2026-04-11 09:51 -36.95018 174.91062 2995 ft 185 kts 13°
2026-04-11 09:51 -36.93758 174.90680 2987 ft 198 kts 346°
2026-04-11 09:51 -36.92652 174.89596 2990 ft 210 kts 319°
2026-04-11 09:51 -36.91992 174.87934 2982 ft 217 kts 289°
2026-04-11 09:52 -36.91981 174.86064 2991 ft 213 kts 255°
2026-04-11 09:52 -36.92555 174.84451 2988 ft 200 kts 227°
2026-04-11 09:52 -36.93290 174.82978 2989 ft 198 kts 230°
2026-04-11 09:52 -36.94022 174.81535 2987 ft 200 kts 228°
2026-04-11 09:53 -36.94838 174.79963 3008 ft 237 kts 230°
2026-04-11 09:53 -36.95794 174.78093 3016 ft 272 kts 232°
2026-04-11 09:53 -36.96854 174.75978 3018 ft 299 kts 233°
2026-04-11 09:53 -36.97999 174.73691 3019 ft 319 kts 233°
2026-04-11 09:54 -36.99212 174.71294 3018 ft 323 kts 232°
2026-04-11 09:54 -37.00364 174.68973 3007 ft 305 kts 235°
2026-04-11 09:54 -37.00905 174.66474 2991 ft 297 kts 271°
2026-04-11 09:54 -37.00729 174.63985 2996 ft 286 kts 278°
2026-04-11 09:55 -37.00487 174.61602 3046 ft 251 kts 280°
2026-04-11 09:55 -37.00221 174.59247 2993 ft 301 kts 280°
2026-04-11 09:55 -36.99884 174.56454 3009 ft 337 kts 280°
2026-04-11 09:55 -36.99984 174.53557 2999 ft 336 kts 251°
2026-04-11 09:56 -37.01138 174.51154 2997 ft 304 kts 217°
2026-04-11 09:56 -37.02803 174.49999 2990 ft 250 kts 181°
2026-04-11 09:56 -37.04280 174.50208 3009 ft 191 kts 140°
2026-04-11 09:56 -37.05063 174.51435 3008 ft 183 kts 112°
2026-04-11 09:57 -37.05737 174.52829 3008 ft 189 kts 112°
2026-04-11 09:57 -37.06032 174.54397 3010 ft 185 kts 89°
2026-04-11 09:57 -37.05792 174.55991 3017 ft 191 kts 75°
2026-04-11 09:57 -37.05742 174.57669 3009 ft 199 kts 98°
2026-04-11 09:58 -37.06014 174.59374 2881 ft 208 kts 93°
2026-04-11 09:58 -37.05862 174.61212 2608 ft 212 kts 82°
2026-04-11 09:58 -37.05529 174.62868 2352 ft 185 kts 76°
2026-04-11 09:58 -37.05136 174.64310 2101 ft 163 kts 75°
2026-04-11 09:59 -37.04788 174.65548 1900 ft 142 kts 77°
2026-04-11 09:59 -37.04483 174.66695 1709 ft 136 kts 77°
2026-04-11 09:59 -37.04176 174.67792 1535 ft 131 kts 79°
2026-04-11 09:59 -37.03881 174.68859 1364 ft 129 kts 78°
2026-04-11 10:00 -37.03601 174.69907 1193 ft 129 kts 77°
2026-04-11 10:00 -37.03308 174.70978 1021 ft 130 kts 78°
2026-04-11 10:00 -37.03008 174.72064 855 ft 135 kts 77°
2026-04-11 10:00 -37.02697 174.73188 679 ft 138 kts 78°
2026-04-11 10:01 -37.02388 174.74335 483 ft 136 kts 77°
2026-04-11 10:01 -37.02077 174.75407 358 ft 128 kts 77°
2026-04-11 10:01 -37.01798 174.76413 175 ft 117 kts 80°
2026-04-11 10:01 -37.01558 174.77330 33 ft 105 kts 78°
2026-04-11 10:02 -37.01354 174.78119 21 ft 85 kts 68°
2026-04-11 10:02 -37.01179 174.78743 21 ft 68 kts 70°
2026-04-11 10:02 -37.01028 174.79277 19 ft 69 kts 84°
2026-04-11 10:02 -37.00760 174.79731 20 ft 58 kts 47°
2026-04-11 10:03 -37.00619 174.80125 20 ft 48 kts 72°
2026-04-11 10:03 -37.00459 174.80357 19 ft 31 kts 357°
2026-04-11 10:03 -37.00314 174.80422 19 ft 26 kts 316°
2026-04-11 10:03 -37.00260 174.80515 19 ft 17 kts 96°
2026-04-11 10:04 -37.00282 174.80535 19 ft 6 kts 188°
2026-04-11 10:04 -37.00304 174.80533 19 ft 0 kts 179°